Погода в Иванковцах

Украина / Кировоградская область     48°54′19″N   32°43′22″E
темп.,
°C
ветер,
м/с
пор.,
м/с
влажн.,
%
обл.,
%
осадки,
мм/ч
давл.,
гПа
погр.,
м
8 августа, пн
пн800:00+21сз22515 0.0 101713
03:00+19сз22785 0.0 101732
06:00+18ссз23925 0.0 101859
09:00+24с44545 0.0 1018409
12:00+30ссв44325 0.0 10181052
15:00+32ссв43245 0.0 10172296
18:00+28с55445 0.0 1018617
21:00+21с47733 0.0 1019128
9 августа, вт
вт900:00+20с36715 0.0 1019100
03:00+18с38825 0.0 1019157
06:00+18ссв48914 0.0 1020216
09:00+23ссв57625 0.0 1019489
12:00+28ссв55405 0.0 1019964
15:00+31ссв55335 0.0 10181513
18:00+29с76380 0.0 10171698
21:00+24с712540 0.0 1018527
10 августа, ср
ср1000:00+20с510644 0.0 1018358
03:00+18с5118310 0.3 1018306
06:00+18с611855 0.1 1018369
09:00+23с796222 0.1 1018680
12:00+26с894495 0.0 10171245
15:00+28ссв91037100 0.0 10161608
18:00+25ссв8943100 0.0 10161365
21:00+21ссв8115995 0.0 1016624
11 августа, чт
чт1100:00+19ссв61272100 0.2 1016467
03:00+19ссв6127298 0.3 1015454
06:00+18ссв71382100 0.0 1014388
09:00+22св8106488 0.0 1015612
12:00+29св683994 0.0 10141182
15:00+31св5731100 0.0 10131935
18:00+23вюв131565100 0.8 1014462
21:00+18сз4792100 10.8 101696
12 августа, пт
пт1200:00+20с61084100 0.0 1016225
03:00+20ссв4108893 0.1 1016209
06:00+21св61378100 0.1 1016444
09:00+22всв71070100 0.1 1017813
12:00+22св6876100 0.2 1016633
15:00+24св696270 0.7 10161016
18:00+27ссв46483 0.1 1014922
21:00+22ссз59775 0.1 1014177